Lid_Strength_Index
-1 1 2 3 10 11 12 10 7 8 8 6 5 6 7 6 8 12 2 1 0 0 -0 -1 -2 -1 -1 -1 -1 -1 -1 -1 -1 -1 -2 -2 -2 -2 -2 -2 -2 -2 -2 -2 -2 -2 -2 -2 -2
1 2 2 6 13 15 13 8 9 7 6 5 5 5 6 7 4 4 3 0 -0 -0 -0 -0 -2 -2 -1 -1 -2 -2 -2 -1 -1 -1 -1 -2 -2 -2 -1 -2 -2 -2 -2 -2 -2 -2 -2 -2 -2
1 1 6 10 13 14 13 8 8 6 5 5 6 4 5 6 3 3 2 0 -0 0 -0 -0 -2 -2 -2 -2 -2 -2 -2 -1 -1 -1 -1 -1 -1 -2 -2 -2 -2 -2 -2 -2 -2 -2 -2 -2 -2
3 4 5 12 13 10 9 7 6 6 6 5 5 7 4 2 3 2 1 -0 0 0 -0 -1 -2 -2 -2 -2 -2 -2 -2 -2 -1 -1 -1 -1 -1 -2 -2 -2 -2 -2 -2 -2 -2 -2 -2 -2 -2
3 6 11 11 11 8 7 7 6 7 6 6 5 7 6 3 1 1 1 0 1 0 -0 -0 -2 -2 -2 -2 -2 -2 -2 -2 -1 -1 -1 -1 -1 -1 -1 -1 -1 -2 -1 -1 -2 -2 -2 -2 -2
7 6 13 12 10 7 7 6 6 7 6 5 6 6 6 2 2 1 1 1 0 0 -0 -0 -1 -2 -2 -2 -2 -2 -2 -2 -1 -1 -1 -1 -1 -1 -1 -1 -1 -0 -0 -1 -1 -1 -1 -1 -2
7 9 11 10 9 8 7 6 7 7 6 6 4 7 5 3 2 1 2 1 0 0 -0 -0 -0 -1 -2 -2 -2 -2 -2 -2 -1 -0 -0 -1 -1 -1 -1 -1 -1 -0 0 -0 -1 -1 -2 -2 -2
5 7 9 10 9 10 6 6 6 6 6 3 3 7 8 4 2 2 3 5 1 0 -0 0 -0 -0 0 0 -2 -2 -2 -2 -1 -0 -0 -1 -0 -2 -2 -2 -1 -0 -0 -1 -1 -1 -2 -2 -2
3 9 11 10 9 9 6 7 5 4 5 5 4 4 3 3 3 3 5 5 4 3 0 0 0 1 0 1 -1 -2 -1 -1 -1 -0 -1 -0 1 1 -1 -2 -2 -0 -1 -1 -2 -2 -2 -3 -3
7 10 10 7 6 9 6 6 6 5 6 6 5 3 3 3 3 4 4 5 5 5 5 1 1 1 1 -0 1 1 1 1 1 3 3 2 2 2 -0 -1 -2 -2 -2 -2 -4 -3 -3 -1 2
7 10 8 6 6 6 6 6 5 6 7 5 6 5 3 3 3 4 4 4 5 6 4 3 2 1 1 1 1 1 1 2 2 3 3 2 1 2 3 2 2 1 -1 2 1 1 1 2 2
8 6 6 7 6 7 6 5 6 6 6 4 4 3 3 3 4 4 6 6 6 5 5 3 1 1 1 0 2 2 4 2 2 3 4 3 2 2 1 2 2 3 3 3 2 2 2 2 1
7 6 6 5 6 6 5 6 6 6 4 3 3 3 4 3 4 3 4 5 5 5 4 3 1 1 1 1 2 3 3 3 2 3 3 2 2 2 1 2 2 2 2 2 2 2 2 2 1
6 6 6 6 6 5 7 7 6 5 4 4 4 4 4 3 4 4 5 4 4 4 4 3 2 2 1 2 3 2 2 2 1 2 2 1 1 2 1 1 1 2 1 1 2 2 2 2 2
5 8 7 6 6 7 6 8 7 5 4 5 4 4 4 4 3 4 4 3 3 4 3 3 3 2 3 3 2 2 1 1 1 1 1 1 1 1 1 1 2 2 1 1 1 2 1 2 2
8 8 12 7 6 6 7 12 7 5 5 6 5 4 4 4 4 4 4 3 3 4 4 3 2 3 3 3 3 2 1 1 1 1 1 1 0 1 1 1 2 1 1 2 2 2 2 2 2
9 12 12 9 6 7 8 11 7 6 6 6 5 5 4 4 5 4 3 3 3 4 4 4 4 4 3 2 3 1 1 2 1 1 1 1 1 0 2 1 0 1 1 2 2 2 2 2 3
11 11 11 10 8 7 9 10 8 7 6 6 6 5 5 4 4 3 3 3 3 4 4 4 3 4 3 2 3 1 1 1 1 1 1 1 1 0 2 1 1 0 2 2 2 2 2 2 3
8 10 10 8 7 9 10 9 8 7 6 7 7 6 5 4 3 3 3 2 3 3 4 4 4 4 3 3 3 3 2 2 1 1 1 1 1 0 1 1 1 2 2 2 2 2 3 3 2
8 9 10 8 8 10 10 10 8 8 7 7 7 6 5 5 5 4 3 3 3 4 4 4 4 4 3 4 2 2 1 2 2 1 1 1 1 1 1 2 2 2 1 2 2 2 3 3 3
9 9 9 10 9 8 10 11 10 8 7 6 6 5 5 5 5 4 3 3 3 3 3 3 4 4 3 3 2 2 1 2 2 2 1 1 1 0 1 1 2 2 1 2 2 3 3 3 3
11 7 8 9 11 15 10 16 10 10 9 8 7 6 5 5 4 4 4 4 3 3 3 2 4 4 3 2 2 2 3 3 2 2 1 1 1 1 1 1 1 2 2 2 2 2 2 3 4
8 7 8 9 12 12 12 15 12 10 11 10 8 6 5 4 4 4 4 3 3 3 3 2 3 2 2 2 1 2 3 2 2 2 2 2 1 1 1 1 1 2 1 2 2 2 2 2 3
5 8 9 10 12 16 12 13 14 13 11 10 7 6 5 5 4 4 3 4 3 2 2 2 2 2 1 1 1 2 3 3 3 2 2 2 1 1 1 1 2 2 1 2 2 2 2 3 3
8 11 15 16 17 18 11 13 13 10 8 7 7 6 5 5 5 4 4 4 4 3 3 2 2 2 1 1 1 2 2 2 2 2 2 3 3 2 2 2 2 2 1 1 1 2 2 2 3
9 11 14 18 18 16 12 15 11 8 7 7 6 6 5 5 5 4 4 4 3 3 3 2 2 2 2 1 2 1 1 2 2 2 2 2 3 2 2 2 1 1 1 1 1 2 2 2 2
9 12 9 13 14 17 15 12 9 9 8 7 7 6 6 5 5 4 4 3 3 3 3 3 2 2 2 1 1 1 2 2 2 2 2 2 2 1 1 1 1 1 1 1 1 1 2 2 2
8 8 12 13 18 19 16 14 14 11 9 8 7 7 6 5 5 4 4 3 3 3 3 2 2 2 2 1 2 1 2 2 1 2 2 2 1 1 2 1 1 0 0 1 1 1 2 2 2
10 10 12 12 14 18 18 16 9 10 9 8 7 6 6 6 5 4 4 3 3 2 3 2 2 2 2 4 3 1 1 1 1 2 2 1 2 1 1 1 1 1 1 1 2 3 3 2 2
8 10 12 15 15 14 14 16 8 9 8 7 7 6 6 5 5 4 4 3 3 4 3 3 3 2 2 2 3 1 1 1 1 2 2 1 1 1 1 1 1 2 4 4 4 4 3 2 2